Temperature
26 26 26 26 24 22 24 25 26 25 25 25 25 24 23 22 21 19 19 20 20 20 20 20 19 19 19 19 19 19 19 19 19 19 19 19 18 18 18 18 18 18 18 18 18 18 18 18 18
27 26 26 26 23 22 24 25 25 25 25 25 24 23 22 21 19 19 19 20 21 20 20 20 19 19 19 19 19 19 19 19 19 19 18 18 18 18 18 18 18 18 18 18 18 18 18 18 18
27 27 26 23 23 23 25 26 26 26 26 25 25 24 23 21 19 19 20 20 21 20 20 20 20 19 19 19 19 19 19 18 18 18 18 18 18 18 18 18 18 18 18 18 18 18 18 18 17
27 27 26 23 25 26 26 26 26 26 26 25 24 23 23 22 21 21 20 21 21 20 20 20 20 20 19 19 19 19 19 18 18 18 18 18 18 18 18 18 18 18 18 18 18 18 18 17 17
28 27 23 23 26 27 27 27 27 26 25 24 23 22 22 22 22 21 21 21 21 21 20 20 20 20 19 19 19 19 19 18 18 18 18 18 18 18 18 18 18 18 18 18 18 18 18 17 17
28 24 23 24 26 27 27 27 26 25 24 24 23 22 21 21 21 21 21 21 21 21 20 20 20 20 20 19 19 19 19 18 18 18 18 18 18 18 18 18 18 18 18 18 18 18 18 17 17
27 23 24 25 26 27 27 27 26 25 24 24 23 22 21 21 22 21 21 21 21 21 21 20 20 20 20 19 19 19 19 19 18 18 18 18 18 18 18 18 18 18 18 18 18 18 17 17 17
29 24 25 25 26 27 28 28 26 25 25 24 24 22 22 21 21 21 21 21 21 21 21 20 20 20 20 19 19 19 19 19 18 18 18 18 18 18 18 18 18 18 18 18 18 18 18 17 17
29 24 25 26 26 27 28 27 27 26 25 25 25 24 23 22 21 21 21 20 20 20 20 20 20 20 19 19 19 19 19 18 18 18 18 18 18 18 18 18 18 18 18 18 18 18 18 17 17
28 25 27 28 27 27 28 27 27 26 25 25 24 24 23 22 22 21 21 21 21 20 20 20 20 20 19 19 19 19 19 18 18 18 18 18 18 18 18 18 18 18 18 18 18 18 18 18 17
29 27 29 30 30 29 28 27 27 26 24 24 24 24 23 23 22 22 22 21 21 21 20 20 20 20 19 19 19 19 18 18 18 18 18 18 18 18 18 18 18 18 18 18 18 18 18 18 18
29 30 31 31 31 30 28 28 27 26 25 26 25 24 23 23 23 22 22 21 21 21 20 20 20 20 19 19 19 19 19 18 18 18 18 18 18 18 18 18 18 18 18 18 18 18 18 18 18
30 30 31 31 31 30 29 28 27 26 26 25 25 24 24 23 23 23 22 22 21 20 20 20 20 20 19 19 19 19 19 18 18 18 18 18 18 18 18 18 18 18 18 18 18 18 18 18 18
30 30 30 31 30 30 29 28 27 26 26 25 24 24 24 24 23 23 22 22 21 21 20 20 20 20 19 19 19 19 19 18 18 18 18 18 18 18 18 18 18 17 17 18 18 18 18 18 17
31 29 28 29 30 29 29 27 26 26 25 25 24 24 24 24 24 23 23 22 22 21 21 20 20 20 19 19 19 19 18 18 18 18 18 18 18 18 18 18 17 18 18 18 18 18 18 17 17
28 27 27 28 29 29 27 25 26 26 25 25 24 24 24 24 24 23 23 22 22 21 21 20 20 20 19 19 19 19 19 18 18 18 18 18 18 18 18 18 18 17 17 18 18 18 18 18 18
26 26 27 28 29 29 27 25 26 26 25 25 24 24 24 24 23 23 23 23 22 22 21 21 20 20 20 19 19 19 19 18 18 18 18 18 18 18 18 18 18 17 18 18 18 18 18 18 18
26 27 27 28 29 29 27 26 26 26 25 25 24 24 24 24 23 23 23 22 22 22 21 21 20 20 20 19 19 19 19 18 18 18 18 18 18 18 18 18 18 18 18 18 18 18 18 18 18
27 28 28 28 29 28 27 27 26 26 26 25 24 24 24 24 24 23 23 22 22 21 21 21 20 20 20 19 19 19 19 18 18 18 18 18 18 18 18 18 18 18 18 18 18 18 18 18 18
29 28 28 29 29 28 27 26 26 26 25 25 24 24 24 23 23 23 22 22 22 22 21 21 20 20 20 19 19 19 19 18 18 18 18 18 17 18 18 18 18 18 18 18 18 18 18 18 18
29 28 28 28 28 28 27 25 25 25 26 25 25 24 24 24 23 23 22 22 22 21 21 21 20 20 20 19 19 19 18 18 18 18 18 18 17 17 17 18 17 17 17 18 18 18 18 18 18
28 29 29 29 26 25 26 24 25 24 24 25 25 24 24 23 23 23 23 22 22 22 21 21 20 20 20 19 19 19 19 18 18 18 18 17 17 17 17 18 18 17 17 17 17 17 17 17 17
29 30 29 28 26 25 25 24 23 24 24 24 24 24 24 24 23 23 23 23 22 22 21 21 20 20 19 19 19 19 18 18 18 18 18 17 17 17 17 17 17 17 17 17 17 17 17 17 17
30 27 25 22 22 24 25 24 24 23 24 24 24 25 24 24 23 23 23 23 22 22 21 21 20 20 19 19 19 19 18 18 18 18 18 17 17 17 17 17 17 17 17 17 17 17 17 17 17
27 23 22 24 22 23 24 24 23 25 25 25 25 25 24 24 23 23 23 22 22 22 21 21 20 20 19 19 19 18 18 18 18 18 17 17 17 17 17 17 17 17 17 17 17 17 17 17 17
27 23 22 24 23 23 23 25 24 26 26 27 26 25 24 24 24 23 23 23 22 22 21 21 20 20 19 19 19 18 18 18 18 18 17 17 17 17 17 17 17 17 17 17 17 17 17 17 17
28 24 22 21 23 23 23 24 25 26 25 25 25 24 24 24 24 23 23 23 22 22 21 21 20 20 20 19 19 18 18 18 18 18 17 17 17 17 17 17 17 17 17 17 17 17 17 17 17
27 25 21 22 22 23 23 24 23 25 25 24 24 23 23 24 23 23 23 23 22 22 21 21 20 20 20 19 19 19 18 18 18 18 17 17 17 17 17 17 17 17 17 17 17 17 17 17 17
28 27 22 20 20 21 23 23 24 24 24 24 23 24 23 23 24 24 23 23 22 22 21 21 20 20 19 19 19 18 18 18 18 17 17 17 17 17 17 17 17 17 17 16 16 16 16 16 16
27 26 22 23 22 20 21 22 25 24 24 24 24 24 24 24 24 24 23 23 22 22 22 21 21 20 19 19 19 19 18 18 18 18 17 17 17 17 17 17 17 16 16 16 16 16 16 16 16
Wind_Speed
4 3 2 1 6 7 9 9 11 12 8 10 12 11 10 8 7 9 5 14 15 11 14 16 16 16 15 15 15 15 15 15 15 15 15 15 15 15 15 15 15 15 15 15 15 15 16 16 16
2 2 2 4 7 7 7 11 15 15 14 15 15 15 12 10 11 13 8 14 15 14 15 15 16 16 15 15 15 15 14 15 15 15 15 15 14 14 14 15 15 14 14 14 14 14 14 14 14
1 2 3 5 5 7 8 12 16 16 14 12 8 8 7 9 12 8 11 16 14 13 15 17 17 16 15 15 14 14 14 14 14 14 14 14 14 14 14 14 14 14 14 13 13 13 13 13 13
2 3 5 6 7 7 11 13 17 15 11 10 11 8 6 8 8 14 19 17 15 11 15 17 17 16 15 15 14 14 14 14 14 14 14 14 14 14 14 14 14 13 13 12 12 12 12 12 11
3 5 6 5 6 8 11 14 15 12 7 11 13 10 7 7 20 22 19 18 16 11 13 16 17 16 15 15 14 14 14 14 14 13 14 14 13 13 14 13 13 13 12 11 11 11 11 11 10
4 5 5 4 7 7 9 14 16 17 16 15 14 11 6 14 20 20 18 16 15 13 13 15 17 16 15 15 14 14 14 13 13 13 13 13 13 13 13 13 12 11 11 10 10 9 9 9 9
4 4 4 6 7 8 9 11 14 15 14 10 11 8 7 13 17 18 17 16 14 14 12 12 14 15 15 15 14 14 13 13 12 12 12 12 12 12 12 12 11 10 10 9 9 8 7 7 7
5 4 4 5 8 7 8 7 12 15 10 13 10 9 10 13 17 18 16 14 13 11 10 10 12 12 13 13 14 13 13 12 12 12 12 12 12 11 11 10 10 9 9 8 7 6 5 4 5
5 5 3 6 9 8 9 10 8 8 11 8 6 8 14 18 20 19 15 12 11 11 8 9 10 11 11 12 13 13 12 12 11 10 11 10 9 9 9 9 8 8 7 6 6 5 3 2 3
5 5 6 7 9 11 12 12 9 7 9 9 12 12 15 18 20 19 17 15 13 12 10 9 9 10 11 10 11 11 10 10 9 8 8 8 8 8 8 8 7 7 6 5 4 2 1 1 2
4 6 4 6 10 12 11 9 7 12 8 15 20 19 17 17 17 17 16 15 14 13 12 10 10 11 10 8 10 8 8 9 8 9 9 8 7 7 7 5 4 4 4 3 2 2 2 2 1
2 3 5 6 8 10 11 9 7 8 11 16 19 19 16 16 16 16 15 14 13 12 12 11 10 9 10 10 8 8 7 7 7 9 9 8 6 5 6 5 5 4 3 3 3 3 3 2 2
3 2 3 5 8 9 11 10 9 8 13 16 17 16 15 15 13 12 13 13 12 11 11 11 10 9 8 8 6 7 7 7 8 8 9 9 6 5 5 5 5 5 5 4 3 3 2 1 1
0 2 2 3 7 9 12 9 8 10 17 17 17 14 13 14 12 11 12 11 11 11 10 10 9 8 8 6 4 5 7 8 8 8 9 9 8 6 5 4 4 4 6 6 4 4 3 2 2
2 4 4 1 3 6 11 7 9 15 18 18 16 14 13 12 12 13 13 12 12 12 10 10 10 8 8 7 6 6 7 8 7 8 9 9 8 7 6 4 3 4 6 5 3 2 2 1 1
5 4 1 5 3 5 10 7 8 15 18 16 15 14 12 11 12 13 13 11 11 11 10 10 9 8 7 6 6 6 7 7 7 8 8 9 9 8 6 4 3 5 4 3 2 2 2 1 1
5 1 3 5 2 4 6 6 10 14 17 16 15 14 13 11 10 11 13 12 12 12 11 9 8 8 7 6 5 6 6 6 6 7 7 7 8 8 6 4 3 4 3 2 2 2 2 2 1
4 3 3 4 3 5 5 6 12 13 15 15 14 13 13 13 12 12 12 12 11 11 10 9 8 7 6 4 3 3 3 3 4 5 7 7 7 7 5 3 3 3 2 1 2 2 1 2 2
5 3 3 4 4 4 5 7 11 12 12 13 12 13 13 12 10 10 11 12 11 9 9 9 8 7 6 4 3 3 3 3 3 4 6 7 6 5 4 3 3 3 3 3 3 2 2 1 1
3 2 2 2 2 4 3 3 7 11 13 15 16 15 14 11 10 10 10 10 11 10 9 8 8 7 6 4 3 3 3 3 3 3 4 6 6 5 4 3 2 3 2 3 3 3 2 1 2
5 1 1 2 3 3 5 3 2 5 7 10 12 13 14 16 15 13 12 10 10 10 9 9 8 7 6 5 3 2 2 1 1 2 2 4 6 6 5 5 4 3 3 3 4 4 4 2 1
4 3 3 5 5 2 3 1 5 5 5 9 11 11 12 12 12 12 12 11 11 10 8 7 6 5 5 5 5 4 4 3 3 3 3 3 5 6 6 5 4 4 3 3 4 4 3 4 2
4 1 4 3 4 3 3 4 6 2 6 9 11 13 13 14 14 13 13 12 10 9 8 7 7 5 5 5 5 5 3 3 2 2 3 3 3 4 5 5 4 3 3 4 3 3 3 3 3
1 7 9 8 6 2 3 4 4 5 9 10 11 13 14 15 14 12 10 9 8 8 8 7 7 5 5 5 5 5 4 3 3 2 3 3 2 2 4 4 4 4 3 4 4 3 4 3 3
7 7 6 6 5 4 4 3 6 7 8 11 13 13 13 13 13 12 12 11 10 10 9 8 7 6 5 5 5 5 5 4 4 4 4 4 3 2 4 3 3 3 3 3 3 3 3 3 3
4 10 8 4 3 4 6 0 6 4 6 8 11 11 12 12 12 12 13 12 11 11 10 9 8 6 5 5 4 3 3 2 2 3 3 4 3 3 3 3 3 3 3 3 2 2 3 3 3
5 5 9 7 2 1 4 4 5 3 4 7 10 10 11 12 12 11 11 11 10 10 10 9 8 6 5 5 4 3 2 2 2 2 2 2 2 2 2 2 3 2 2 2 2 2 2 2 2
8 8 7 5 3 1 4 3 5 5 5 7 10 10 10 11 11 11 10 10 10 9 8 8 8 7 5 5 4 3 2 2 2 1 1 1 1 2 2 2 2 2 2 2 2 2 2 2 2
4 5 6 5 6 6 2 7 7 11 10 11 10 11 11 13 13 12 11 10 10 9 9 8 8 6 5 5 3 3 3 2 2 2 2 2 2 2 2 1 1 1 1 1 1 1 2 2 2
9 9 9 5 4 6 5 7 6 9 10 11 12 11 11 12 12 11 11 10 10 10 9 9 8 7 6 5 5 4 3 3 4 3 3 3 3 2 2 2 1 1 1 1 1 1 1 1 1
Wind_Direction
241 215 150 71 57 61 83 86 93 81 64 65 74 83 82 67 102 126 134 131 132 129 126 123 119 117 114 110 106 104 101 99 98 99 100 100 100 101 101 103 104 105 105 105 105 105 106 108 109
223 182 92 53 81 82 84 93 91 97 114 100 81 81 76 73 91 116 124 134 132 127 125 125 122 120 117 114 110 107 105 103 102 101 102 102 102 102 103 104 105 106 105 105 105 106 105 106 107
235 149 82 65 94 113 106 106 107 106 108 100 96 74 73 107 116 126 139 140 128 123 126 129 126 123 120 118 114 111 109 107 105 105 104 104 104 103 102 104 105 106 106 105 106 105 105 105 105
66 52 52 77 106 119 119 121 117 110 89 82 92 73 70 107 117 133 139 136 126 124 129 132 129 127 124 121 118 115 113 110 109 108 107 106 105 105 105 105 106 106 106 107 107 106 105 104 104
70 68 55 68 95 106 115 121 117 105 89 93 96 97 82 91 123 134 139 135 131 131 133 134 132 131 128 125 122 120 117 114 112 111 110 109 109 109 108 108 108 108 108 108 108 108 108 105 103
52 68 74 86 99 99 107 113 106 102 109 108 108 106 103 127 133 140 139 136 135 136 135 137 136 135 133 130 127 124 122 120 118 117 116 116 115 113 112 112 112 111 110 110 110 112 112 106 100
102 91 125 125 116 111 120 121 121 129 129 130 128 107 126 142 143 141 137 134 135 136 136 138 140 140 138 136 133 130 127 126 125 125 124 122 120 119 118 117 116 114 113 113 113 114 114 106 99
145 109 115 133 131 132 142 123 134 135 127 136 135 129 153 157 143 135 133 133 136 140 143 145 142 142 142 142 140 138 136 135 134 134 133 131 128 126 123 122 123 121 118 118 119 120 115 101 93
120 88 136 159 141 146 142 119 125 117 126 148 135 135 152 143 136 133 133 135 144 151 156 152 149 150 149 149 149 147 146 145 144 143 141 136 133 133 133 134 134 132 129 129 129 128 119 90 70
111 138 187 167 151 148 145 134 134 112 113 107 109 122 138 138 140 143 149 155 158 162 169 166 162 163 163 158 153 155 155 154 152 153 151 150 156 157 152 151 149 147 148 147 147 153 153 39 27
142 160 164 138 144 142 138 134 119 124 132 146 144 148 148 144 147 152 158 162 165 166 168 170 168 170 170 156 159 166 164 165 168 172 174 172 167 166 159 156 162 162 167 175 187 221 262 273 301
134 157 145 142 140 140 142 139 125 140 160 157 150 150 151 152 157 160 161 161 161 164 167 168 168 168 170 160 166 170 169 175 176 178 174 167 161 162 169 175 188 197 202 208 207 232 260 264 233
91 104 121 142 135 140 131 132 134 143 142 145 146 148 154 157 159 158 157 157 156 160 164 166 166 165 161 159 170 170 171 176 180 176 174 170 168 175 179 184 193 208 208 203 206 219 219 222 188
287 97 80 134 129 136 125 126 119 143 144 149 154 158 161 162 157 149 151 155 158 161 163 164 162 160 154 159 166 167 169 173 174 173 180 180 176 174 172 173 180 199 201 200 194 193 186 191 155
21 51 15 352 128 138 114 101 145 150 151 157 163 165 163 164 158 159 163 161 159 159 159 162 163 156 154 157 161 160 163 166 171 175 179 179 177 175 169 169 176 191 190 185 174 158 152 140 120
21 51 1 289 143 151 116 145 167 156 157 163 169 169 166 170 165 163 162 158 158 157 159 165 166 156 154 154 154 152 154 158 170 175 177 177 181 181 173 172 189 191 178 161 148 150 136 131 126
17 4 249 280 192 149 116 161 169 164 165 169 172 171 169 169 166 164 164 162 161 161 162 166 160 157 158 154 150 145 146 154 166 172 179 186 186 185 178 174 185 179 161 158 179 159 158 171 175
272 273 258 231 216 131 124 161 160 167 174 175 173 170 170 172 175 168 165 162 160 160 161 163 161 161 158 150 133 124 129 153 164 172 190 190 186 180 173 174 186 175 155 163 161 153 161 181 191
245 271 267 220 180 130 145 163 171 173 180 176 172 171 174 176 169 161 161 161 157 156 159 164 163 168 160 156 154 153 166 176 179 187 195 192 188 178 170 175 178 177 176 190 177 159 164 198 151
278 357 339 316 156 130 139 175 173 171 183 179 174 174 174 166 159 163 162 161 164 165 166 165 168 170 172 173 170 168 162 177 181 186 187 193 191 185 185 177 186 191 177 184 184 165 161 210 158
315 259 222 155 21 41 90 5 212 181 182 178 175 174 171 171 171 171 171 170 163 168 173 172 174 172 173 167 144 128 111 105 156 194 203 201 194 193 193 191 195 201 188 195 202 185 172 197 229
288 284 119 105 91 292 118 193 260 188 189 184 176 172 176 175 174 175 173 171 172 176 169 159 165 167 167 161 159 160 169 188 207 201 204 204 200 201 201 199 203 200 189 198 210 192 181 174 208
230 323 60 73 99 35 33 125 275 170 184 194 184 177 175 177 177 177 174 171 169 162 158 152 154 161 159 162 167 167 181 201 206 189 193 207 216 212 210 206 203 197 193 200 207 191 180 175 180
152 41 30 42 65 19 267 147 252 226 200 190 183 180 177 175 175 172 163 152 150 149 148 148 150 156 162 167 171 177 186 196 193 196 197 212 223 224 224 214 204 199 196 200 205 200 191 187 180
76 75 30 7 16 265 284 133 241 238 200 181 176 178 174 170 170 164 158 158 157 155 154 154 155 163 171 170 176 187 194 199 201 200 201 207 216 225 232 229 209 201 201 200 195 191 196 191 189
142 129 146 182 220 286 339 264 261 240 167 156 157 162 162 165 167 167 166 164 162 161 160 160 162 168 174 173 175 180 182 184 196 202 198 204 212 223 223 217 208 204 197 199 184 191 203 187 197
141 161 164 140 160 353 307 316 331 21 115 134 145 152 163 166 163 165 164 160 160 162 164 164 162 161 168 169 159 151 155 165 184 184 178 191 210 205 195 199 193 197 186 183 180 189 205 186 203
157 152 94 111 140 245 302 272 219 197 174 155 156 164 167 160 157 160 161 163 160 158 156 154 155 160 161 162 164 156 151 158 164 139 124 140 158 133 122 131 144 176 183 188 178 184 204 195 215
165 132 115 124 149 149 219 269 225 195 172 159 161 163 163 164 163 165 161 163 153 148 151 152 153 150 151 153 148 137 130 121 111 107 103 102 93 101 107 111 114 125 130 151 159 211 218 210 222
174 176 149 152 210 160 165 261 261 191 170 152 154 160 161 164 163 160 155 152 150 157 159 154 155 156 159 153 139 136 124 111 103 97 90 90 91 99 102 91 89 100 90 97 122 215 223 198 222
Height
1510 1508 1508 1509 1512 1525 1529 1523 1518 1517 1520 1521 1520 1521 1525 1530 1537 1548 1546 1547 1549 1550 1551 1552 1552 1553 1553 1553 1553 1554 1554 1554 1554 1554 1554 1555 1555 1555 1556 1556 1556 1557 1557 1558 1559 1559 1560 1561 1561
1510 1509 1510 1512 1524 1541 1535 1523 1522 1521 1523 1523 1524 1526 1528 1536 1538 1542 1545 1549 1550 1551 1552 1553 1554 1554 1554 1555 1555 1555 1555 1556 1556 1556 1556 1557 1557 1557 1558 1558 1558 1559 1560 1560 1561 1561 1562 1563 1563
1510 1510 1513 1517 1529 1537 1534 1524 1523 1525 1524 1523 1527 1530 1533 1539 1542 1544 1546 1549 1551 1552 1553 1554 1555 1555 1556 1556 1556 1557 1557 1557 1558 1558 1558 1559 1559 1560 1560 1560 1560 1561 1562 1562 1563 1564 1564 1565 1565
1511 1513 1515 1523 1530 1524 1522 1522 1522 1525 1526 1527 1528 1533 1538 1542 1542 1545 1548 1550 1552 1553 1554 1555 1556 1557 1557 1558 1558 1559 1559 1559 1560 1560 1560 1561 1561 1561 1562 1562 1563 1563 1564 1564 1565 1566 1566 1567 1568
1512 1514 1523 1532 1527 1521 1519 1520 1521 1523 1527 1530 1530 1536 1541 1544 1545 1547 1549 1552 1553 1554 1555 1557 1558 1558 1559 1559 1560 1560 1561 1561 1561 1562 1562 1563 1563 1563 1564 1564 1565 1565 1566 1566 1567 1568 1569 1569 1570
1515 1517 1534 1539 1529 1522 1521 1521 1523 1527 1531 1534 1535 1538 1545 1546 1547 1549 1551 1553 1554 1555 1557 1558 1559 1560 1560 1561 1561 1562 1562 1563 1563 1564 1564 1565 1565 1565 1566 1566 1567 1567 1568 1569 1569 1570 1571 1572 1572
1517 1523 1533 1533 1531 1527 1525 1523 1523 1528 1531 1534 1535 1539 1546 1549 1549 1551 1553 1555 1556 1557 1558 1559 1560 1561 1562 1562 1563 1563 1564 1564 1565 1565 1566 1566 1567 1567 1568 1568 1569 1569 1570 1571 1571 1572 1573 1574 1575
1515 1521 1529 1530 1530 1529 1523 1523 1525 1527 1531 1535 1536 1538 1544 1548 1550 1552 1555 1556 1557 1558 1559 1560 1561 1562 1563 1563 1564 1565 1565 1566 1567 1567 1568 1568 1569 1569 1570 1571 1571 1571 1572 1573 1573 1574 1575 1576 1577
1514 1525 1533 1528 1527 1526 1521 1523 1527 1528 1531 1535 1536 1538 1542 1547 1550 1552 1555 1557 1558 1559 1560 1561 1562 1563 1564 1564 1565 1566 1567 1567 1568 1569 1569 1570 1570 1571 1572 1572 1573 1573 1574 1575 1575 1576 1577 1578 1579
1512 1526 1523 1515 1516 1519 1520 1521 1525 1529 1532 1535 1538 1541 1545 1548 1549 1551 1553 1555 1557 1559 1560 1562 1562 1563 1564 1565 1566 1567 1568 1568 1569 1570 1570 1571 1572 1573 1573 1574 1575 1575 1576 1576 1577 1578 1579 1580 1580
1510 1515 1512 1511 1513 1516 1519 1523 1525 1528 1534 1534 1536 1540 1545 1548 1550 1551 1553 1555 1557 1558 1560 1562 1563 1564 1565 1566 1567 1568 1569 1569 1570 1571 1572 1572 1573 1573 1574 1575 1576 1577 1577 1578 1579 1579 1580 1581 1581
1510 1509 1508 1510 1513 1515 1518 1522 1526 1527 1531 1533 1535 1539 1543 1546 1549 1550 1552 1554 1556 1558 1560 1561 1563 1564 1565 1566 1567 1568 1569 1570 1571 1572 1572 1573 1573 1574 1575 1576 1577 1578 1578 1579 1580 1580 1581 1582 1582
1509 1510 1510 1510 1512 1514 1517 1521 1524 1528 1531 1535 1538 1541 1543 1546 1549 1551 1553 1555 1556 1558 1559 1561 1562 1563 1565 1566 1567 1568 1569 1570 1571 1572 1572 1573 1574 1574 1575 1576 1577 1578 1579 1579 1580 1581 1581 1582 1582
1511 1510 1511 1512 1512 1515 1518 1523 1525 1530 1532 1536 1538 1541 1544 1546 1549 1551 1553 1554 1556 1557 1559 1561 1562 1563 1565 1566 1567 1568 1568 1570 1571 1572 1572 1573 1574 1574 1575 1576 1577 1577 1578 1579 1580 1581 1581 1582 1583
1510 1513 1514 1513 1513 1517 1518 1528 1527 1529 1533 1535 1538 1541 1543 1546 1548 1549 1551 1553 1555 1556 1558 1560 1561 1563 1564 1565 1566 1567 1568 1569 1570 1571 1572 1573 1573 1574 1575 1576 1577 1577 1578 1579 1580 1580 1581 1582 1582
1512 1520 1527 1516 1513 1516 1521 1537 1529 1530 1532 1535 1537 1540 1542 1545 1547 1549 1551 1552 1554 1556 1557 1559 1560 1562 1563 1564 1565 1566 1567 1568 1569 1570 1571 1572 1573 1573 1574 1575 1576 1577 1578 1578 1579 1580 1580 1581 1581
1525 1533 1530 1521 1513 1514 1520 1532 1528 1529 1531 1533 1536 1538 1541 1543 1546 1548 1550 1551 1553 1554 1556 1558 1559 1561 1562 1564 1565 1566 1567 1568 1568 1569 1570 1571 1572 1572 1573 1574 1575 1576 1577 1577 1578 1579 1580 1580 1581
1535 1532 1528 1523 1513 1514 1521 1525 1525 1528 1530 1532 1534 1537 1539 1541 1543 1546 1548 1550 1552 1554 1555 1557 1558 1560 1561 1562 1564 1565 1566 1567 1567 1568 1569 1570 1570 1571 1572 1573 1574 1575 1575 1576 1577 1577 1578 1579 1580
1523 1525 1525 1518 1510 1514 1521 1524 1524 1526 1530 1532 1534 1536 1538 1540 1543 1545 1547 1549 1551 1553 1554 1555 1556 1558 1559 1560 1562 1563 1564 1565 1566 1566 1567 1568 1569 1570 1571 1571 1572 1573 1574 1575 1575 1576 1577 1577 1578
1519 1524 1524 1517 1511 1516 1523 1525 1524 1525 1527 1528 1530 1533 1535 1539 1542 1544 1546 1548 1549 1551 1552 1553 1555 1556 1558 1559 1561 1562 1563 1563 1564 1564 1565 1566 1567 1568 1568 1569 1570 1571 1572 1573 1574 1574 1575 1576 1577
1519 1522 1522 1522 1517 1518 1525 1535 1530 1526 1526 1528 1530 1531 1534 1536 1539 1542 1545 1547 1548 1550 1551 1553 1554 1556 1557 1558 1559 1560 1561 1561 1562 1562 1563 1564 1564 1565 1566 1567 1568 1569 1570 1570 1572 1573 1573 1574 1575
1524 1512 1512 1517 1530 1539 1533 1554 1536 1528 1528 1528 1529 1531 1534 1536 1539 1541 1543 1545 1547 1549 1551 1552 1554 1555 1556 1557 1558 1558 1558 1559 1559 1560 1561 1561 1562 1563 1564 1565 1565 1566 1567 1568 1569 1570 1571 1572 1573
1513 1506 1510 1516 1528 1539 1537 1549 1543 1530 1532 1528 1527 1529 1532 1535 1537 1540 1542 1544 1546 1549 1550 1551 1553 1554 1555 1556 1556 1556 1557 1557 1558 1558 1558 1559 1560 1560 1561 1562 1563 1564 1565 1566 1567 1568 1569 1569 1570
1505 1512 1519 1529 1539 1555 1542 1547 1548 1534 1527 1525 1525 1528 1530 1532 1536 1539 1541 1544 1546 1548 1550 1551 1552 1553 1554 1554 1555 1555 1555 1555 1556 1556 1556 1556 1557 1558 1559 1560 1561 1562 1563 1563 1565 1566 1566 1567 1568
1511 1534 1557 1558 1568 1561 1540 1542 1542 1521 1516 1517 1521 1525 1528 1531 1534 1537 1540 1542 1545 1547 1549 1550 1551 1552 1552 1553 1553 1553 1554 1554 1554 1554 1554 1555 1555 1556 1556 1557 1558 1559 1560 1561 1562 1563 1564 1565 1565
1515 1531 1560 1569 1571 1562 1544 1543 1531 1512 1512 1514 1518 1522 1526 1530 1533 1535 1538 1540 1543 1546 1548 1549 1550 1551 1551 1552 1552 1552 1553 1553 1553 1553 1553 1553 1553 1554 1555 1555 1556 1557 1558 1559 1560 1561 1561 1562 1562
1515 1526 1531 1551 1555 1563 1555 1539 1525 1514 1514 1516 1520 1523 1526 1528 1532 1535 1538 1540 1542 1544 1546 1548 1549 1550 1551 1551 1552 1552 1552 1552 1552 1552 1552 1552 1552 1552 1553 1554 1555 1555 1556 1557 1558 1558 1559 1559 1559
1506 1515 1537 1551 1566 1571 1559 1548 1541 1524 1519 1518 1521 1523 1525 1528 1531 1534 1538 1540 1542 1544 1546 1548 1549 1550 1550 1551 1551 1551 1551 1552 1552 1551 1551 1551 1551 1551 1552 1552 1553 1553 1554 1555 1555 1556 1556 1557 1557
1509 1516 1531 1548 1554 1567 1569 1554 1519 1517 1514 1516 1519 1522 1526 1527 1529 1532 1536 1540 1542 1544 1546 1547 1548 1549 1550 1551 1551 1551 1551 1551 1551 1551 1550 1550 1550 1551 1551 1551 1551 1551 1552 1553 1553 1553 1554 1554 1554
1502 1510 1526 1544 1549 1555 1560 1549 1508 1509 1510 1513 1518 1521 1524 1527 1529 1532 1535 1537 1540 1543 1545 1546 1547 1549 1550 1551 1551 1551 1551 1551 1551 1551 1550 1550 1550 1550 1550 1550 1550 1550 1550 1551 1551 1551 1551 1551 1552